Location: Regensburg
(48.4565°N, 10.3217°E)
Time: 17:08:10
(UTC+02:00)

ISS - Visible Passes

Search period start: 29 March 2017 00:00
Search period end: 08 April 2017 00:00
Orbit: 399 x 409 km, 51.6° (Epoch: 30 March)

Date Brightness Start Highest point End Pass type
(mag) Time Alt. Az. Time Alt. Az. Time Alt. Az.
29 Mar -3.9 21:42:02 10° WSW 21:45:05 73° SSW 21:45:05 73° SSW visible
30 Mar -3.6 20:49:49 10° SW 20:52:59 51° SSE 20:55:20 17° ENE visible
30 Mar -1.8 22:26:17 10° W 22:28:01 27° WNW 22:28:01 27° WNW visible
31 Mar -3.6 21:33:48 10° W 21:37:03 66° NNW 21:38:04 39° NE visible
31 Mar -0.4 23:10:37 10° WNW 23:10:45 11° WNW 23:10:45 11° WNW visible
01 Apr -3.9 20:41:23 10° WSW 20:44:39 90° ENE 20:47:56 10° ENE visible
01 Apr -2.5 22:18:08 10° WNW 22:20:40 39° NW 22:20:40 39° NW visible
02 Apr -3.1 21:25:37 10° W 21:28:49 50° N 21:30:29 24° ENE visible
02 Apr -0.8 23:02:22 10° WNW 23:03:08 16° WNW 23:03:08 16° WNW visible
03 Apr -3.4 20:33:05 10° W 20:36:20 60° NNW 20:39:35 10° ENE visible
03 Apr -2.9 22:09:55 10° WNW 22:12:52 46° N 22:12:52 46° N visible
04 Apr -3.0 21:17:25 10° WNW 21:20:35 45° N 21:22:32 20° ENE visible
04 Apr -1.2 22:54:00 10° WNW 22:55:11 20° WNW 22:55:11 20° WNW visible
05 Apr -3.0 20:24:51 10° W 20:28:02 48° N 20:31:13 10° ENE visible
05 Apr -3.5 22:01:33 10° WNW 22:04:48 59° NNE 22:04:48 59° NNE visible
06 Apr -3.2 21:09:05 10° WNW 21:12:17 49° N 21:14:25 18° ENE visible
06 Apr -1.6 22:45:35 10° WNW 22:47:03 24° WNW 22:47:03 24° WNW visible
07 Apr -4.0 21:53:07 10° WNW 21:56:23 88° NNE 21:56:38 75° ESE visible
